User: anonymous   Login
Location: Falconara Alta
(43.6167°N, 13.4000°E)
Time: 17:14:06
(UTC+00:00)
Language:

Resurs 1-3 - Orbit

View from above orbital plane
View from above orbital plane
View from above satellite
View from above satellite

Ground track
Ground track

The orbit data is extracted from the following two-line orbital elements,

1 23342U 94074A   20196.40756533 -.00000035  00000-0  22133-5 0  9994
2 23342  97.9280 244.9346 0002045  87.1362 273.0084 14.79439934383844
Epoch (UTC): 14 July 2020 09:46:53
Eccentricity: 0.0002045
inclination: 97.9280°
perigee height: 629 km
apogee height: 632 km
right ascension of ascending node: 244.9346°
argument of perigee: 87.1362°
revolutions per day: 14.79439934
mean anomaly at epoch: 273.0084°
orbit number at epoch: 38384

The dashed part of the orbit path shows where the satellite is in the earth's shadow,  

DLR